Hourly Data Report for March 15, 2003

SHERBROOKE A
QUEBEC

45°26'00.000" N
71°41'00.000" W
241.40 m
7028124
71610
YSC

Download Data

Hourly Data (March 2003)
Hourly Data Report for March 15, 2003
TIME
LST
Temp Definition
°C
Dew Point Definition
°C
Rel Hum Definition
%
Precip. Amount Definition
mm

Wind Dir Definition
10's deg

Wind Spd Definition
km/h
Visibility Definition
km
Stn Press Definition
kPa
Hmdx Definition


Wind Chill Definition


Weather Definition


00:00 -12.7 -20.9 50   13 4 15.0 99.40   -15  
01:00 -12.4 -21.9 45   11 4 15.0 99.40   -15  
02:00 -13.9 -21.1 54     0 15.0 99.36      
03:00 -12.8 -20.3 53   7 4 15.0 99.30   -15  
04:00 -12.1 -20.6 49   5 4 15.0 99.30   -15  
05:00 -11.8 -19.7 52   7 4 15.0 99.29   -14  
06:00 -11.4 -19.3 52   7 4 15.0 99.33   -14  
07:00 -10.5 -18.8 51   9 6 15.0 99.34   -14  
08:00 -9.1 -17.6 50   9 4 24.1 99.39   -11 Cloudy
09:00 -7.7 -17.1 47   31 4 24.1 99.40   -10 Cloudy
10:00 -5.4 -15.0 47   7 4 24.1 99.32   -7 Cloudy
11:00 -3.7 -12.1 52   25 9 24.1 99.23   -7 Mostly Cloudy
12:00 -3.1 -12.0 50   22 9 24.1 99.21   -7 Mostly Cloudy
13:00 -2.0 -10.6 52   27 11 24.1 99.13   -6 Mostly Cloudy
14:00 -1.4 -10.1 52   21 13 24.1 99.08   -6 Mostly Cloudy
15:00 -1.2 -9.9 52   29 7 24.1 99.05   -4 Mainly Clear
16:00 -0.2 -9.8 48   26 7 24.1 99.02   -3 Mainly Clear
17:00 -0.6 -10.3 48   25 6 24.1 98.97   -3 Mostly Cloudy
18:00 -2.1 -10.4 53   19 6 15.0 98.98   -4  
19:00 -4.4 -11.1 59   18 4 15.0 98.96   -6  
20:00 -7.1 -11.8 69     0 15.0 98.97      
21:00 -8.7 -12.4 75   9 4 15.0 99.00   -11  
22:00 -9.1 -13.1 73   7 7 15.0 99.00   -13  
23:00 -7.4 -12.1 69   8 9 15.0 98.97   -12  

Notes on Data Quality.

Legend

  • E = Estimated
  • M = Missing
  • NA = Not Available*
  • [empty] = Indicates an unobserved value
Date modified: